Date String (YYYY-MM-DD hh:mm:ss) UTC,Instrument flags,Ambient pressure (hPa),Sample flow (lpm),Bypass flow (lpm),Sample temperature (°C),Ambient temperature (°C),ASC tube jacket temperature (°C),LED temperature (°C),Box temperature (°C),Sample RH (%),Span deviation,Mass concentration (μg/m³),Mass concentration (μg/m³),Mass concentration (μg/m³)
DateTimeUTC,F1_M11,P_M11,Q1_M11,Q2_M11,T1_M11,T2_M11,T3_M11,T4_M11,T5_M11,U1_M11,ZSPAN_M11,X0_M11,X2_M11,X1_M11
2022-09-07 14:00:00,,0834.0,4.98,0.00,30.2,29.1,00.0,38.9,32.1,16.8,0004.1,0027.38,0011.98,0009.96
2022-09-07 14:01:00,,0834.0,5.01,0.00,30.2,29.2,00.0,38.9,32.1,16.7,0003.5,0026.70,0011.65,0009.64
2022-09-07 14:02:00,,0834.0,4.98,0.00,30.3,29.2,00.0,39.0,32.1,16.3,0003.5,0026.47,0011.48,0009.42
2022-09-07 14:03:00,,0834.0,4.99,0.00,30.3,29.3,00.0,39.0,32.1,16.1,0004.0,0026.35,0011.57,0009.47
2022-09-07 14:04:00,,0834.0,5.01,0.00,30.3,29.2,00.0,39.0,32.2,16.2,0003.4,0026.10,0011.69,0009.55
2022-09-07 14:05:00,,0834.0,5.00,0.00,30.3,28.2,00.0,39.0,32.1,16.3,0002.3,0025.47,0011.69,0009.49
2022-09-07 14:06:00,,0834.0,5.00,0.00,30.3,27.0,00.0,39.0,32.0,16.5,0002.0,0023.96,0011.66,0009.56
2022-09-07 14:07:00,,0834.1,5.00,0.00,30.2,26.9,00.0,38.9,31.9,16.6,0002.1,0023.38,0011.69,0009.61
2022-09-07 14:08:00,,0834.0,5.00,0.00,30.1,27.2,00.0,38.9,31.8,16.5,0001.8,0023.24,0011.83,0009.78
2022-09-07 14:09:00,,0834.0,5.00,0.00,30.1,27.5,00.0,38.9,31.7,16.7,0001.9,0024.03,0011.99,0009.92
2022-09-07 14:10:00,,0834.0,5.01,0.00,30.0,27.8,00.0,38.8,31.8,16.8,0001.6,0025.45,0012.20,0010.07
2022-09-07 14:11:00,,0834.1,4.99,0.00,30.0,28.1,00.0,38.8,31.7,16.9,0001.7,0026.72,0012.24,0010.12
2022-09-07 14:12:00,,0834.0,4.99,0.00,30.0,28.3,00.0,38.8,31.8,17.1,0002.0,0027.10,0012.27,0010.13
2022-09-07 14:13:00,,0834.0,5.00,0.00,30.0,28.5,00.0,38.8,31.8,17.1,0002.2,0027.49,0012.14,0010.03
2022-09-07 14:14:00,,0834.1,5.00,0.00,30.0,28.6,00.0,38.8,31.8,17.2,0002.1,0026.97,0011.88,0009.77
2022-09-07 14:15:00,,0834.1,5.00,0.00,30.0,28.7,00.0,38.8,31.9,17.2,0002.2,0025.64,0011.58,0009.47
2022-09-07 14:16:00,,0834.1,5.01,0.00,30.1,28.8,00.0,38.8,31.9,17.2,0002.2,0026.17,0011.42,0009.29
2022-09-07 14:17:00,,0834.1,4.99,0.00,30.1,28.9,00.0,38.8,31.9,17.1,0002.9,0026.54,0011.37,0009.21
2022-09-07 14:18:00,,0834.1,5.02,0.00,30.1,29.0,00.0,38.9,32.0,17.1,0003.0,0026.98,0011.40,0009.16
2022-09-07 14:19:00,,0834.1,4.99,0.00,30.1,29.0,00.0,38.9,32.0,17.1,0003.2,0026.80,0011.37,0009.12
2022-09-07 14:20:00,,0834.1,5.02,0.00,30.2,29.1,00.0,38.9,32.0,17.2,0002.6,0026.34,0011.33,0009.06
2022-09-07 14:21:00,,0834.1,4.98,0.00,30.2,29.1,00.0,38.9,32.1,17.3,0002.7,0025.06,0011.29,0009.08
2022-09-07 14:22:00,,0834.1,5.02,0.00,30.2,29.2,00.0,38.9,32.1,17.5,0002.9,0024.67,0011.31,0009.15
2022-09-07 14:23:00,,0834.1,5.00,0.00,30.3,29.2,00.0,38.9,32.1,17.5,0002.9,0025.50,0011.33,0009.21
2022-09-07 14:24:00,,0834.1,4.99,0.00,30.3,28.5,00.0,39.0,32.1,17.4,0002.5,0025.31,0011.38,0009.28
2022-09-07 14:25:00,,0834.1,5.00,0.00,30.2,27.2,00.0,38.9,31.9,17.3,0002.3,0025.28,0011.37,0009.34
2022-09-07 14:26:00,,0834.0,5.00,0.00,30.2,26.9,00.0,38.9,31.9,17.4,0002.7,0027.26,0011.38,0009.40
2022-09-07 14:27:00,,0834.1,4.99,0.00,30.1,27.2,00.0,38.8,31.8,17.4,0003.2,0026.42,0011.36,0009.44
2022-09-07 14:28:00,,0834.1,5.01,0.00,30.0,27.5,00.0,38.8,31.7,17.4,0003.5,0026.76,0011.26,0009.33
2022-09-07 14:29:00,,0834.1,4.99,0.00,30.0,27.8,00.0,38.8,31.7,17.6,0003.8,0026.17,0011.21,0009.27
2022-09-07 14:30:00,,0834.1,5.00,0.00,30.0,28.1,00.0,38.8,31.8,17.8,0003.6,0026.12,0011.22,0009.25
2022-09-07 14:31:00,,0834.1,5.03,0.00,30.0,28.3,00.0,38.8,31.8,17.5,0003.7,0026.27,0011.07,0009.12
2022-09-07 14:32:00,,0834.1,4.98,0.00,30.0,28.5,00.0,38.8,31.8,17.8,0003.6,0026.64,0010.99,0009.02
2022-09-07 14:33:00,,0834.1,5.00,0.00,30.0,28.6,00.0,38.8,31.9,17.5,0004.0,0026.17,0010.83,0008.88
2022-09-07 14:34:00,,0834.1,5.00,0.00,30.0,28.8,00.0,38.8,31.9,17.4,0004.2,0025.09,0010.73,0008.73
2022-09-07 14:35:00,,0834.1,4.99,0.00,30.1,28.9,00.0,38.8,31.9,17.6,0004.3,0025.04,0010.62,0008.64
2022-09-07 14:36:00,,0834.0,5.01,0.00,30.1,28.9,00.0,38.8,32.0,18.2,0004.4,0025.49,0010.70,0008.67
2022-09-07 14:37:00,,0834.1,4.98,0.00,30.1,29.0,00.0,38.8,32.0,18.2,0004.2,0024.19,0010.82,0008.80
2022-09-07 14:38:00,,0834.1,5.01,0.00,30.1,29.1,00.0,38.9,32.0,17.9,0003.6,0023.79,0010.83,0008.84
2022-09-07 14:39:00,,0834.1,4.99,0.00,30.2,29.1,00.0,38.9,32.0,17.8,0002.8,0023.08,0010.91,0008.94
2022-09-07 14:40:00,,0834.1,5.01,0.00,30.2,29.2,00.0,38.9,32.1,18.0,0002.3,0023.47,0011.03,0009.10
2022-09-07 14:41:00,,0834.2,4.98,0.00,30.2,28.6,00.0,38.9,32.1,18.1,0002.1,0025.63,0011.10,0009.15
2022-09-07 14:42:00,,0834.1,5.01,0.00,30.2,27.4,00.0,38.9,31.9,18.8,0002.1,0025.97,0011.22,0009.27
2022-09-07 14:43:00,,0834.1,5.00,0.00,30.1,27.0,00.0,38.8,31.9,18.6,0002.3,0026.87,0011.46,0009.43
2022-09-07 14:44:00,,0834.1,5.01,0.00,30.1,27.3,00.0,38.8,31.8,18.3,0002.6,0028.01,0011.54,0009.48
2022-09-07 14:45:00,,0834.2,4.99,0.00,30.0,27.6,00.0,38.8,31.7,18.6,0002.0,0029.68,0011.68,0009.63
2022-09-07 14:46:00,,0834.2,5.00,0.00,30.0,27.9,00.0,38.8,31.8,19.1,0002.0,0030.78,0011.98,0009.87
2022-09-07 14:47:00,,0834.2,5.00,0.00,30.0,28.1,00.0,38.8,31.8,19.7,0002.1,0032.62,0012.35,0010.13
2022-09-07 14:48:00,,0834.2,5.00,0.00,30.0,28.3,00.0,38.8,31.8,19.9,0001.9,0034.23,0012.57,0010.30
2022-09-07 14:49:00,,0834.2,5.01,0.00,30.0,28.5,00.0,38.8,31.8,19.5,0002.4,0036.86,0012.80,0010.48
2022-09-07 14:50:00,,0834.2,4.99,0.00,30.0,28.7,00.0,38.8,31.9,18.8,0002.6,0037.97,0013.00,0010.59
2022-09-07 14:51:00,,0834.3,5.00,0.00,30.0,28.8,00.0,38.8,31.9,18.5,0002.7,0038.49,0013.00,0010.60
2022-09-07 14:52:00,,0834.2,5.01,0.00,30.1,28.9,00.0,38.8,31.9,18.3,0002.3,0037.90,0012.91,0010.55
2022-09-07 14:53:00,,0834.2,4.99,0.00,30.1,29.0,00.0,38.8,32.0,18.4,0002.7,0036.93,0012.89,0010.49
2022-09-07 14:54:00,,0834.3,5.01,0.00,30.1,29.0,00.0,38.8,32.0,18.5,0002.9,0036.41,0012.83,0010.43
2022-09-07 14:55:00,,0834.3,4.98,0.00,30.1,28.8,00.0,38.8,32.0,18.3,0002.3,0035.23,0012.87,0010.42
2022-09-07 14:56:00,,0834.3,5.01,0.00,30.1,27.6,00.0,38.8,31.9,17.9,0002.3,0035.43,0012.90,0010.36
2022-09-07 14:57:00,,0834.3,4.99,0.00,30.1,26.9,00.0,38.8,31.8,18.6,0001.5,0035.77,0012.84,0010.27
2022-09-07 14:58:00,,0834.3,5.01,0.00,30.0,27.1,00.0,38.7,31.8,18.8,0001.7,0033.17,0012.72,0010.19
2022-09-07 14:59:00,,0834.3,5.00,0.00,30.0,27.4,00.0,38.7,31.7,18.6,0001.7,0032.05,0012.47,0009.98
